Regional Weather Roundup
Issued by NWS

Home | Current Version | Previous Version | Graphics & Text | Print | Product List | Glossary On
Versions: 1 2 3 4 5 6 7 8 9 10 11 12 13 14 15 16 17 18 19 20 21 22 23 24 25 26 27 28 29 30 31 32 33 34 35 36 37 38 39 40 41 42 43 44 45 46 47 48 49 50
000
ASUS45 KABQ 250210
RWRNM
NEW MEXICO REGIONAL WEATHER ROUNDUP
NATIONAL WEATHER SERVICE ALBUQUERQUE NM
800 PM MDT SUN JUL 24 2016

NOTE: "FAIR" MEANS FEW OR NO CLOUDS BELOW 12,000 FEET AGL WITH NO
       SIGNIFICANT WEATHER OR OBSTRUCTIONS TO VISION.

      THIS PRODUCT IS RELEASED AS TWO VERSIONS.  ONE VERSION NEAR
      THE TOP OF THE HOUR CONTAINING PRELIMINARY DATA FROM ALBUQUERQUE
      AND OTHER STATIONS.  A FINAL VERSION WITH ADDITIONAL DATA IS
      ISSUED ABOUT 10 MINUTES AFTER THE HOUR.

NMZ501-503-504-510>518-250300-
NORTHWEST PLATEAU/NORTHCENTRAL MOUNTAINS

CITY           SKY/WX    TMP DP  RH WIND       PRES   REMARKS
FARMINGTON     FAIR      89  37  16 NE3       30.10R
LOS ALAMOS     FAIR      70  46  42 W17G26    30.37R
SANTA FE       FAIR      75  48  38 W16G22    30.29R
TAOS           MOCLDY    75  39  27 SE12      30.32R
ANGEL FIRE     FAIR      62  52  70 NE6       30.44R

$$
NMZ402-403-502-505>509-250300-
WESTCENTRAL MOUNTAINS/SOUTHWEST MOUNTAINS

CITY           SKY/WX    TMP DP  RH WIND       PRES   REMARKS
GALLUP         FAIR      76  47  35 S18G31    30.24R
GRANTS         FAIR      77  46  32 S5        30.28R
SILVER CITY    FAIR      85  47  26 NW13      30.11R

$$
NMZ407-409-411-412-250300-
SOUTHERN DESERTS

CITY           SKY/WX    TMP DP  RH WIND       PRES   REMARKS
LORDSBURG      FAIR      90  46  22 N20G26    29.98R
DEMING         FAIR      92  45  19 N15       29.98R
LAS CRUCES     TSTM      80  59  49 N13       30.00R
HOLLOMAN AFB   MOCLDY    96  46  18 NE10      29.94R
ALAMOGORDO     FAIR      90  50  25 N8        29.96R
T OR C         FAIR      87  45  23 N8        30.05R

$$
NMZ519>523-250300-
CENTRAL VALLEYS/CENTRAL HIGHLANDS

CITY           SKY/WX    TMP DP  RH WIND       PRES   REMARKS
ALBUQUERQUE    MOCLDY    78  54  43 N23       30.18S
DOUBLE EAGLE   MOCLDY    68  57  68 NW21G32   30.21F
MORIARTY ARPT  LGT RAIN  71  51  50 N9G18     30.29R
CLINES CORNERS FAIR      65  52  62 E14       30.32R
BELEN          FAIR      81  47  30 N13       30.15R
SOCORRO        LGT RAIN  84  46  26 NW18G30   30.10F

$$
NMZ524>526-539-540-250300-
SOUTHCENTRAL MOUNTAINS

CITY           SKY/WX    TMP DP  RH WIND       PRES   REMARKS
RUIDOSO          N/A     81  39  22 E9G16     30.28R

$$
NMZ527>531-250300-
NORTHEAST HIGHLANDS/NORTHEAST PLAINS

CITY           SKY/WX    TMP DP  RH WIND       PRES   REMARKS
LAS VEGAS      LGT RAIN  63  52  67 S16G25    30.32S
RATON          FAIR      66  56  70 CALM      30.26R
CLAYTON        LGT RAIN  67  63  87 SE6       30.20R

$$
NMZ532>537-250300-
EASTCENTRAL PLAINS

CITY           SKY/WX    TMP DP  RH WIND       PRES   REMARKS
TUCUMCARI      MOCLDY    79  58  48 N23G29    30.11R
CANNON AFB     FAIR      86  51  30 SE8       30.08R
CLOVIS AIRPORT FAIR      86  50  28 SE8       30.08R

$$
NMZ028-029-538-250300-
SOUTHEAST PLAINS

CITY           SKY/WX    TMP DP  RH WIND       PRES   REMARKS
ROSWELL        FAIR      94  46  19 SE7       29.97R
ARTESIA        FAIR      97  52  21 E9        29.95R
CARLSBAD       FAIR      95  50  21 E12       29.92R
HOBBS          FAIR      91  50  24 E9        30.01R


$$




USA.gov is the U.S. government's official web portal to all federal, state and local government web resources and services.